Location: Rochester
(43.1610°N, 77.6109°W)
Time: 10:57:50
(UTC-04:00)

Envisat - Visible Passes

Search period start: 25 September 2022 00:00
Search period end: 05 October 2022 00:00
Orbit: 764 x 765 km, 98.2° (Epoch: 24 September)

Date Brightness Start Highest point End Pass type
(mag) Time Alt. Az. Time Alt. Az. Time Alt. Az.
25 Sep 4.3 05:00:18 10° NNE 05:05:04 39° E 05:09:48 10° SSE visible
26 Sep 5.5 04:24:21 10° NE 04:27:49 18° E 04:31:16 10° SE visible
26 Sep 3.1 06:02:11 10° N 06:07:09 56° WNW 06:12:06 10° SSW visible
27 Sep 3.3 05:25:10 10° NNE 05:30:15 68° ESE 05:35:18 10° S visible
28 Sep 4.7 04:48:39 10° NNE 04:53:09 31° E 04:57:36 10° SSE visible
28 Sep 3.7 06:27:36 10° N 06:32:07 33° WNW 06:36:37 10° SW visible
29 Sep 5.8 04:13:10 10° ENE 04:15:50 14° E 04:18:29 10° ESE visible
29 Sep 2.9 05:50:16 10° N 05:55:21 71° WNW 06:00:23 10° SSW visible
30 Sep 3.7 05:13:23 10° NNE 05:18:22 53° E 05:23:19 10° S visible
01 Oct 5.1 04:37:05 10° NE 04:41:13 24° E 04:45:17 10° SSE visible
01 Oct 3.4 06:15:35 10° N 06:20:21 42° WNW 06:25:05 10° SW visible
02 Oct 6.0 04:02:40 10° ENE 04:03:49 11° E 04:04:58 10° E visible
02 Oct 2.9 05:38:23 10° NNE 05:43:30 89° NW 05:48:35 10° SSW visible
03 Oct 4.2 05:01:40 10° NNE 05:06:29 41° E 05:11:15 10° SSE visible
03 Oct 4.0 06:41:08 10° N 06:45:15 25° WNW 06:49:22 10° WSW visible
04 Oct 5.5 04:25:38 10° NE 04:29:15 19° E 04:32:49 10° SE visible
04 Oct 3.1 06:03:36 10° N 06:08:33 53° WNW 06:13:27 10° SSW visible
